Crisp Cnty-Cordele AP, Cordel, GA

10:27 AM EST on December 14, 2017 (GMT -0500)
Crisp County-Cordele

Weather History for KCKF - March, 2014

Change the Weather History Date:

Sunday, March 23, 2014

  Actual Average (KFZG) Record (KFZG)
Temperature  
Mean Temperature 66 °F -  
Max Temperature 75 °F 70 °F 76 °F (2016)
Min Temperature 57 °F 47 °F 40 °F (2016)
Cooling Degree Days 1    
Growing Degree Days 16 (Base 50)    
Moisture  
Dew Point 56 °F    
Average Humidity 73    
Maximum Humidity 89    
Minimum Humidity 56    
Precipitation  
Precipitation 0.00 in - - ()
Sea Level Pressure  
Sea Level Pressure 30.02 in    
Wind  
Wind Speed 3 mph (WNW)    
Max Wind Speed 14 mph    
Max Gust Speed 23 mph    
Visibility 10 miles    
Events Rain    
Averages and records for this station are not official NWS values.
T = Trace of Precipitation, MM = Missing Value Source: NWS Daily Summary

Daily Weather History Graph

Daily Weather History Graph

Search for Another Location

Airport or City:

Trip Planner

Search our weather history database for the weather conditions in past years. The results will help you decide how hot, cold, wet, or windy it might be!

Date:

Astronomy

Mar. 23, 2014 Rise Set
Actual Time 7:34 AM EDT 7:48 PM EDT
Civil Twilight 7:10 AM EDT 8:13 PM EDT
Nautical Twilight 6:42 AM EDT 8:41 PM EDT
Astronomical Twilight 6:13 AM EDT 9:10 PM EDT
Moon 1:47 AM EDT (3/23) 12:32 PM EDT (3/23)
Length of Visible Light 13h 02m
Length of Day
12h 13m
Waning Gibbous, 55% of the Moon is Illuminated
Mar 23
Waning Gibbous
Mar 23
Last Quarter
Mar 30
New
Apr 7
First Quarter
Apr 15
Full

Hourly Weather History & Observations

Time (EDT) Temp. Dew Point Humidity Pressure Visibility Wind Dir Wind Speed Gust Speed Precip Events Conditions
12:15 AM 63.0 °F 56.1 °F 78% 30.04 in 10.0 mi Calm Calm - N/A   Clear
12:35 AM 62.4 °F 55.8 °F 79% 30.04 in 10.0 mi Calm Calm - N/A   Clear
12:55 AM 62.1 °F 55.8 °F 80% 30.03 in 10.0 mi Calm Calm - N/A   Clear
1:15 AM 62.2 °F 55.9 °F 80% 30.02 in 10.0 mi Calm Calm - N/A   Clear
1:40 AM 60.3 °F 55.6 °F 85% 30.01 in 10.0 mi Calm Calm - N/A   Clear
1:55 AM 60.4 °F 55.6 °F 84% 30.01 in 10.0 mi Calm Calm - N/A   Clear
2:15 AM 60.3 °F 55.4 °F 84% 30.01 in 10.0 mi Calm Calm - N/A   Clear
2:35 AM 59.4 °F 54.5 °F 84% 30.00 in 10.0 mi Calm Calm - N/A   Clear
2:55 AM 59.0 °F 55.0 °F 87% 30.00 in 10.0 mi Calm Calm - N/A   Clear
3:15 AM 58.8 °F 54.5 °F 86% 29.99 in 10.0 mi Calm Calm - N/A   Clear
3:35 AM 59.0 °F 53.6 °F 82% 29.99 in 10.0 mi Calm Calm - N/A   Clear
3:55 AM 58.3 °F 54.5 °F 87% 29.99 in 10.0 mi Calm Calm - N/A   Clear
4:15 AM 59.2 °F 53.2 °F 81% 29.98 in 10.0 mi Calm Calm - N/A   Clear
4:35 AM 59.2 °F 52.9 °F 80% 29.99 in 10.0 mi WSW 3.5 mph - N/A   Clear
4:55 AM 59.7 °F 53.6 °F 80% 29.99 in 10.0 mi Calm Calm - N/A   Clear
5:15 AM 59.9 °F 53.6 °F 80% 29.98 in 10.0 mi Calm Calm - N/A   Clear
5:35 AM 58.3 °F 53.8 °F 85% 29.99 in 10.0 mi WSW 3.5 mph - N/A   Clear
5:55 AM 57.6 °F 53.6 °F 87% 29.99 in 10.0 mi WSW 3.5 mph - N/A   Clear
6:15 AM 57.7 °F 53.4 °F 85% 29.99 in 10.0 mi Calm Calm - N/A   Clear
6:35 AM 59.2 °F 54.3 °F 84% 29.98 in 10.0 mi Calm Calm - N/A   Clear
6:55 AM 59.0 °F 54.7 °F 86% 29.99 in 10.0 mi Calm Calm - N/A   Clear
7:15 AM 58.8 °F 54.7 °F 86% 30.00 in 10.0 mi Calm Calm - N/A   Clear
7:35 AM 58.3 °F 55.0 °F 89% 30.01 in 7.0 mi Calm Calm - N/A   Clear
7:55 AM 59.0 °F 55.6 °F 88% 30.01 in 7.0 mi Calm Calm - N/A   Clear
8:15 AM 59.5 °F 55.6 °F 87% 30.01 in 7.0 mi Calm Calm - N/A   Clear
8:35 AM 60.8 °F 56.5 °F 86% 30.01 in 7.0 mi Calm Calm - N/A   Clear
8:55 AM 61.3 °F 56.7 °F 85% 30.01 in 7.0 mi SW 3.5 mph - N/A   Clear
9:15 AM 62.6 °F 57.0 °F 82% 30.01 in 7.0 mi Calm Calm - N/A   Clear
9:35 AM 63.1 °F 57.7 °F 83% 30.01 in 7.0 mi WSW 4.6 mph - N/A   Clear
9:55 AM 65.1 °F 58.6 °F 79% 30.01 in 10.0 mi West 4.6 mph - N/A   Clear
10:15 AM 66.4 °F 58.6 °F 76% 30.02 in 10.0 mi WSW 5.8 mph - N/A   Clear
10:35 AM 67.6 °F 58.5 °F 72% 30.02 in 10.0 mi WSW 4.6 mph - N/A   Clear
10:55 AM 70.9 °F 58.6 °F 65% 30.03 in 10.0 mi WNW 8.1 mph - N/A   Clear
11:15 AM 71.1 °F 58.5 °F 64% 30.04 in 10.0 mi WNW 6.9 mph - N/A   Clear
11:35 AM 72.1 °F 58.3 °F 62% 30.05 in 10.0 mi WNW 10.4 mph - N/A   Clear
11:55 AM 72.0 °F 57.2 °F 60% 30.06 in 10.0 mi NNW 9.2 mph - N/A   Mostly Cloudy
12:15 PM 71.8 °F 55.6 °F 57% 30.05 in 10.0 mi NW 10.4 mph - N/A   Overcast
12:35 PM 70.9 °F 56.1 °F 59% 30.06 in 10.0 mi NW 10.4 mph - N/A Rain Light Rain
12:55 PM 69.8 °F 57.0 °F 64% 30.06 in 10.0 mi NNW 6.9 mph - N/A Rain Light Rain
1:15 PM 68.9 °F 58.6 °F 70% 30.06 in 10.0 mi NW 4.6 mph - N/A Rain Light Rain
1:35 PM 68.9 °F 58.3 °F 69% 30.04 in 10.0 mi Calm Calm - N/A Rain Light Rain
1:55 PM 69.1 °F 58.5 °F 69% 30.02 in 10.0 mi Calm Calm - N/A   Light Drizzle
2:15 PM 70.0 °F 58.3 °F 66% 30.01 in 10.0 mi West 3.5 mph - N/A Rain Light Rain
2:35 PM 70.7 °F 59.0 °F 66% 29.99 in 10.0 mi SW 5.8 mph - N/A   Overcast
2:55 PM 71.8 °F 59.0 °F 64% 29.99 in 10.0 mi WSW 6.9 mph - N/A   Overcast
3:15 PM 72.7 °F 59.2 °F 62% 29.97 in 10.0 mi SW 5.8 mph - N/A   Overcast
3:35 PM 74.3 °F 59.5 °F 60% 29.96 in 10.0 mi WSW 9.2 mph - N/A   Overcast
3:55 PM 74.7 °F 59.5 °F 59% 29.96 in 10.0 mi WNW 12.7 mph 17.3 mph N/A   Overcast
4:15 PM 74.5 °F 59.7 °F 60% 29.96 in 10.0 mi West 13.8 mph 23.0 mph N/A   Mostly Cloudy
4:35 PM 75.2 °F 60.4 °F 60% 29.96 in 10.0 mi WNW 11.5 mph 17.3 mph N/A   Overcast
4:55 PM 74.5 °F 60.1 °F 61% 29.96 in 10.0 mi WNW 9.2 mph - N/A   Overcast
5:15 PM 73.6 °F 60.3 °F 63% 29.97 in 10.0 mi NNW 12.7 mph 20.7 mph N/A   Overcast
5:35 PM 73.8 °F 58.8 °F 59% 29.97 in 10.0 mi NNW 12.7 mph 20.7 mph N/A   Scattered Clouds
5:55 PM 73.2 °F 58.3 °F 59% 29.97 in 10.0 mi NW 12.7 mph 17.3 mph N/A   Clear
6:15 PM 71.8 °F 58.6 °F 63% 29.98 in 10.0 mi WNW 9.2 mph 16.1 mph N/A   Mostly Cloudy
6:35 PM 70.3 °F 58.3 °F 66% 29.99 in 10.0 mi NW 6.9 mph - N/A   Overcast
6:55 PM 70.5 °F 57.9 °F 64% 30.00 in 10.0 mi NW 9.2 mph - N/A   Mostly Cloudy
7:15 PM 69.8 °F 57.6 °F 65% 30.00 in 10.0 mi WNW 8.1 mph 16.1 mph N/A   Scattered Clouds
7:35 PM 68.9 °F 57.2 °F 66% 30.01 in 10.0 mi WNW 5.8 mph - N/A   Scattered Clouds
7:55 PM 67.5 °F 56.8 °F 69% 30.01 in 10.0 mi WNW 6.9 mph - N/A   Clear
8:15 PM 65.8 °F 56.5 °F 72% 30.02 in 10.0 mi WNW 5.8 mph - N/A   Clear
8:35 PM 64.8 °F 56.5 °F 74% 30.04 in 10.0 mi West 6.9 mph - N/A   Clear
8:55 PM 64.4 °F 56.3 °F 75% 30.04 in 10.0 mi WNW 4.6 mph - N/A   Clear
9:15 PM 63.3 °F 55.9 °F 77% 30.05 in 10.0 mi WNW 4.6 mph - N/A   Clear
9:35 PM 63.5 °F 56.1 °F 77% 30.07 in 10.0 mi NW 6.9 mph - N/A   Clear
9:55 PM 64.0 °F 52.9 °F 67% 30.08 in 10.0 mi NW 6.9 mph - N/A   Clear
10:15 PM 63.1 °F 50.9 °F 64% 30.09 in 10.0 mi NNW 8.1 mph - N/A   Clear
10:35 PM 62.4 °F 48.9 °F 61% 30.09 in 10.0 mi NNW 6.9 mph - N/A   Clear
10:55 PM 61.7 °F 48.4 °F 62% 30.11 in 10.0 mi NNW 4.6 mph - N/A   Clear
11:15 PM 60.8 °F 48.2 °F 63% 30.12 in 10.0 mi NNW 6.9 mph - N/A   Clear
11:35 PM 60.8 °F 46.0 °F 58% 30.13 in 10.0 mi NNW 5.8 mph - N/A   Clear
11:55 PM 60.4 °F 44.8 °F 56% 30.13 in 10.0 mi NNW 5.8 mph - N/A   Clear